User: anonymous   Login
Location: Kuppenheim
(48.8299°N, 8.2568°E)
Time: 02:42:08
(UTC+00:00)
Language:

Cosmos 1898 Rocket - Orbit

View from above orbital plane
View from above orbital plane
View from above satellite
View from above satellite

Ground track
Ground track

The orbit data is extracted from the following two-line orbital elements,

1 18586U 87098B   21260.31939183  .00000067  00000-0  31370-4 0  9999
2 18586  74.0067 314.9874 0021087   1.0654 359.0540 14.36969115770111
Epoch (UTC): 17 September 2021 07:39:55
Eccentricity: 0.0021087
inclination: 74.0067°
perigee height: 753 km
apogee height: 783 km
right ascension of ascending node: 314.9874°
argument of perigee: 1.0654°
revolutions per day: 14.36969115
mean anomaly at epoch: 359.0540°
orbit number at epoch: 77011

The dashed part of the orbit path shows where the satellite is in the earth's shadow,  

DLR